WA6MHA-15 Weather Reports


Display with metric or nautical units.
time (UTC)temp
F
wind
direction
speed
MPH
gust
MPH
rain 1hr
in
rain 24hr
in
rain mn
in
humidity
%
barometer
mb
20170821083456 63 195 0.0 3.0 0.00 0.00 0.00 97
20170821083320 63 195 0.0 3.0 0.00 0.00 0.00 97
20170821083105 63 272 0.0 1.0 0.00 0.00 0.00 97
20170821082918 63 272 0.0 1.0 0.00 0.00 0.00 97
20170821082306 63 244 0.0 3.0 0.00 0.00 0.00 97
20170821082115 63 244 0.0 3.0 0.00 0.00 0.00 97
20170821081713 63 237 0.0 3.0 0.00 0.00 0.00 97
20170821081523 63 257 2.0 2.0 0.00 0.00 0.00 97
20170821081310 63 257 2.0 2.0 0.00 0.00 0.00 97
20170821081032 63 257 0.0 3.0 0.00 0.00 0.00 97
20170821080909 63 257 0.0 3.0 0.00 0.00 0.00 97
20170821080242 63 296 0.0 1.0 0.00 0.00 0.00 97
20170821080106 63 296 0.0 1.0 0.00 0.00 0.00 97
20170821080104 63 296 0.0 1.0 0.00 0.00 0.00 97
20170821075702 62 246 0.0 4.0 0.00 0.00 0.00 97
20170821075305 63 258 2.0 2.0 0.00 0.00 0.00 97
20170821074648 63 324 1.0 3.0 0.00 0.00 0.00 97
20170821074459 63 324 1.0 3.0 0.00 0.00 0.00 97
20170821073850 63 303 0.0 3.0 0.00 0.00 0.00 97
20170821073655 63 303 0.0 3.0 0.00 0.00 0.00 97
20170821073041 63 277 0.0 3.0 0.00 0.00 0.00 98
20170821072851 63 277 0.0 3.0 0.00 0.00 0.00 98
20170821072256 63 137 0.0 3.0 0.00 0.00 0.00 97
20170821072048 63 137 0.0 3.0 0.00 0.00 0.00 97
20170821072046 63 137 0.0 3.0 0.00 0.00 0.00 97
20170821071108 63 298 0.0 2.0 0.00 0.00 0.00 97
20170821070842 63 298 0.0 2.0 0.00 0.00 0.00 97
20170821070632 62 298 0.0 2.0 0.00 0.00 0.00 97
20170821070440 62 298 0.0 2.0 0.00 0.00 0.00 97
20170821065636 62 230 0.0 2.0 0.00 0.00 0.00 97
20170821065437 63 261 0.0 2.0 0.00 0.00 0.00 97
20170821065235 63 261 0.0 2.0 0.00 0.00 0.00 97
20170821064431 62 188 0.0 2.0 0.00 0.00 0.00 97
20170821064300 62 177 0.0 2.0 0.00 0.00 0.00 97
20170821064031 62 177 0.0 2.0 0.00 0.00 0.00 97
20170821063054 62 240 0.0 2.0 0.00 0.00 0.00 97
20170821062824 62 240 0.0 2.0 0.00 0.00 0.00 97
20170821062604 62 265 1.0 0.0 0.00 0.00 0.00 97
20170821062423 62 265 1.0 0.0 0.00 0.00 0.00 97
20170821061337 61 52 0.0 0.0 0.00 0.00 0.00 97
20170821061217 61 52 0.0 0.0 0.00 0.00 0.00 97
20170821060816 61 52 0.0 0.0 0.00 0.00 0.00 97
20170821060549 61 52 0.0 0.0 0.00 0.00 0.00 97
20170821060413 61 52 0.0 0.0 0.00 0.00 0.00 97
20170821060054 61 52 0.0 0.0 0.00 0.00 0.00 97
20170821060012 61 52 0.0 0.0 0.00 0.00 0.00 97
20170821055815 61 52 0.0 0.0 0.00 0.00 0.00 97
20170821055703 61 52 0.0 0.0 0.00 0.00 0.00 97
20170821055610 61 52 0.0 0.0 0.00 0.00 0.00 97
20170821055337 60 52 0.0 0.0 0.00 0.00 0.00 97
20170821055257 60 52 0.0 0.0 0.00 0.00 0.00 97
20170821055209 60 52 0.0 0.0 0.00 0.00 0.00 97
20170821054849 60 52 0.0 0.0 0.00 0.00 0.00 97
20170821054451 62 52 0.0 1.0 0.00 0.00 0.00 97
20170821054055 60 52 0.0 1.0 0.00 0.00 0.00 97
20170821054003 60 52 0.0 1.0 0.00 0.00 0.00 97
20170821053801 61 63 1.0 2.0 0.00 0.00 0.00 98
20170821053639 61 63 1.0 2.0 0.00 0.00 0.00 98
20170821053602 61 63 1.0 2.0 0.00 0.00 0.00 98
20170821053406 60 54 2.0 2.0 0.00 0.00 0.00 97
20170821053232 60 54 2.0 2.0 0.00 0.00 0.00 97
20170821053159 60 54 2.0 2.0 0.00 0.00 0.00 97
20170821053045 60 59 0.0 1.0 0.00 0.00 0.00 97
20170821052855 60 59 0.0 1.0 0.00 0.00 0.00 97
20170821052758 60 59 0.0 1.0 0.00 0.00 0.00 97
20170821052430 60 59 0.0 0.0 0.00 0.00 0.00 97
20170821052356 60 59 0.0 0.0 0.00 0.00 0.00 97
20170821051622 61 59 0.0 0.0 0.00 0.00 0.00 97
20170821051551 61 59 0.0 0.0 0.00 0.00 0.00 97
20170821051325 60 59 0.0 0.0 0.00 0.00 0.00 97
20170821051229 60 59 0.0 0.0 0.00 0.00 0.00 97
20170821051151 60 59 0.0 0.0 0.00 0.00 0.00 97
20170821050918 61 59 0.0 0.0 0.00 0.00 0.00 96
20170821050826 61 59 0.0 0.0 0.00 0.00 0.00 96
20170821050749 61 59 0.0 0.0 0.00 0.00 0.00 96
20170821050434 60 59 0.0 0.0 0.00 0.00 0.00 96
20170821050350 60 59 0.0 0.0 0.00 0.00 0.00 96
20170821050136 61 59 0.0 0.0 0.00 0.00 0.00 96
20170821050031 61 59 0.0 0.0 0.00 0.00 0.00 96
20170821045945 61 59 0.0 0.0 0.00 0.00 0.00 96
20170821045611 61 59 0.0 0.0 0.00 0.00 0.00 96
20170821045317 61 59 0.0 0.0 0.00 0.00 0.00 96
20170821045212 61 59 0.0 0.0 0.00 0.00 0.00 96
20170821045142 61 59 0.0 0.0 0.00 0.00 0.00 96
20170821044820 61 59 0.0 0.0 0.00 0.00 0.00 96
20170821044527 61 59 0.0 0.0 0.00 0.00 0.00 96
20170821044433 61 59 0.0 0.0 0.00 0.00 0.00 96
20170821044338 61 59 0.0 0.0 0.00 0.00 0.00 96
20170821044153 62 59 0.0 0.0 0.00 0.00 0.00 96
20170821044036 62 59 0.0 0.0 0.00 0.00 0.00 96
20170821043937 62 59 0.0 0.0 0.00 0.00 0.00 96
20170821043627 62 59 0.0 0.0 0.00 0.00 0.00 96
20170821043535 62 59 0.0 0.0 0.00 0.00 0.00 96
20170821043217 62 59 0.0 0.0 0.00 0.00 0.00 96
20170821043133 62 59 0.0 0.0 0.00 0.00 0.00 96
20170821042921 62 59 0.0 1.0 0.00 0.00 0.00 96
20170821042818 62 59 0.0 1.0 0.00 0.00 0.00 96
20170821042731 62 59 0.0 1.0 0.00 0.00 0.00 96
20170821042409 63 59 0.0 1.0 0.00 0.00 0.00 96
20170821042329 63 59 0.0 1.0 0.00 0.00 0.00 96
20170821041928 63 64 0.0 0.0 0.00 0.00 0.00 96
20170821041705 63 85 0.0 0.0 0.00 0.00 0.00 96
20170821041611 63 85 0.0 0.0 0.00 0.00 0.00 96
20170821041526 63 85 0.0 0.0 0.00 0.00 0.00 96
20170821041312 63 85 0.0 3.0 0.00 0.00 0.00 96
20170821041205 63 85 0.0 3.0 0.00 0.00 0.00 96
20170821041124 63 85 0.0 3.0 0.00 0.00 0.00 96
20170821040805 64 126 1.0 3.0 0.00 0.00 0.00 96
20170821040356 63 232 1.0 4.0 0.00 0.00 0.00 96
20170821040320 63 232 1.0 4.0 0.00 0.00 0.00 96
20170821035951 64 246 2.0 3.0 0.00 0.00 0.00 96
20170821035623 64 187 0.0 3.0 0.00 0.00 0.00 95
20170821035550 64 187 0.0 3.0 0.00 0.00 0.00 95
20170821035517 64 187 0.0 3.0 0.00 0.00 0.00 95
20170821035246 64 203 2.0 4.0 0.00 0.00 0.00 95
20170821035152 64 203 2.0 4.0 0.00 0.00 0.00 95
20170821035116 64 203 2.0 4.0 0.00 0.00 0.00 95
20170821034809 64 244 3.0 4.0 0.00 0.00 0.00 95
20170821034352 64 199 3.0 5.0 0.00 0.00 0.00 95
20170821034314 64 199 3.0 5.0 0.00 0.00 0.00 95
20170821033958 64 212 3.0 3.0 0.00 0.00 0.00 95
20170821033544 64 209 0.0 3.0 0.00 0.00 0.00 95
20170821033509 64 209 0.0 3.0 0.00 0.00 0.00 95
20170821033145 65 247 0.0 3.0 0.00 0.00 0.00 95
20170821033106 65 247 0.0 3.0 0.00 0.00 0.00 95
20170821032733 64 232 1.0 3.0 0.00 0.00 0.00 95
20170821032519 64 255 3.0 0.0 0.00 0.00 0.00 94
20170821032358 64 255 3.0 0.0 0.00 0.00 0.00 94
20170821032302 64 255 3.0 0.0 0.00 0.00 0.00 94
20170821031947 64 146 0.0 0.0 0.00 0.00 0.00 94
20170821031902 64 146 0.0 0.0 0.00 0.00 0.00 94
20170821031547 64 146 0.0 0.0 0.00 0.00 0.00 94
20170821031459 64 146 0.0 0.0 0.00 0.00 0.00 94
20170821031256 65 146 0.0 1.0 0.00 0.00 0.00 94
20170821031141 65 146 0.0 1.0 0.00 0.00 0.00 94
20170821031058 65 146 0.0 1.0 0.00 0.00 0.00 94
20170821030812 64 146 0.0 3.0 0.00 0.00 0.00 93
20170821030655 64 146 0.0 3.0 0.00 0.00 0.00 93
20170821030440 65 216 1.0 1.0 0.00 0.00 0.00 93
20170821030325 65 216 1.0 1.0 0.00 0.00 0.00 93
20170821030254 65 216 1.0 1.0 0.00 0.00 0.00 93
20170821030125 65 286 0.0 3.0 0.00 0.00 0.00 93
20170821025936 65 286 0.0 3.0 0.00 0.00 0.00 93
20170821025852 65 286 0.0 3.0 0.00 0.00 0.00 93
20170821025658 65 286 0.0 3.0 0.00 0.00 0.00 92
20170821025548 65 286 0.0 3.0 0.00 0.00 0.00 92
20170821025451 65 286 0.0 3.0 0.00 0.00 0.00 92
20170821025442 65 232 1.0 3.0 0.00 0.00 0.00 92
20170821025321 65 232 1.0 3.0 0.00 0.00 0.00 92
20170821025202 65 313 0.0 3.0 0.00 0.00 0.00 92
20170821025059 65 313 0.0 3.0 0.00 0.00 0.00 92
20170821025019 65 313 0.0 3.0 0.00 0.00 0.00 92
20170821024903 66 105 0.0 6.0 0.00 0.00 0.00 92
20170821024807 66 105 0.0 6.0 0.00 0.00 0.00 92
20170821024715 66 105 0.0 6.0 0.00 0.00 0.00 92
20170821024548 66 189 0.0 4.0 0.00 0.00 0.00 91
20170821024511 66 189 0.0 4.0 0.00 0.00 0.00 91
20170821024413 66 189 0.0 4.0 0.00 0.00 0.00 91
20170821024258 66 181 0.0 4.0 0.00 0.00 0.00 91
20170821024144 66 181 0.0 4.0 0.00 0.00 0.00 91
20170821024110 66 181 0.0 4.0 0.00 0.00 0.00 91
20170821023918 66 206 0.0 4.0 0.00 0.00 0.00 90
20170821023807 66 206 0.0 4.0 0.00 0.00 0.00 90
20170821023611 67 282 0.0 4.0 0.00 0.00 0.00 90
20170821023504 67 282 0.0 4.0 0.00 0.00 0.00 90
20170821023233 67 306 2.0 6.0 0.00 0.00 0.00 90
20170821023201 67 306 2.0 6.0 0.00 0.00 0.00 90
20170821022935 67 174 0.0 8.0 0.00 0.00 0.00 89
20170821022858 67 174 0.0 8.0 0.00 0.00 0.00 89
20170821022754 67 330 2.0 8.0 0.00 0.00 0.00 90
20170821022630 67 330 2.0 8.0 0.00 0.00 0.00 90
20170821022556 67 330 2.0 8.0 0.00 0.00 0.00 90
20170821022418 67 340 2.0 6.0 0.00 0.00 0.00 89
20170821022334 67 340 2.0 6.0 0.00 0.00 0.00 89
20170821022252 67 340 2.0 6.0 0.00 0.00 0.00 89
20170821022057 67 324 5.0 6.0 0.00 0.00 0.00 88
20170821021732 68 322 2.0 5.0 0.00 0.00 0.00 87
20170821021436 69 317 1.0 8.0 0.00 0.00 0.00 86
20170821021345 69 317 1.0 8.0 0.00 0.00 0.00 86
20170821021219 69 253 2.0 8.0 0.00 0.00 0.00 86
20170821021130 69 253 2.0 8.0 0.00 0.00 0.00 86
20170821021041 69 253 2.0 8.0 0.00 0.00 0.00 86
20170821020818 69 300 4.0 7.0 0.00 0.00 0.00 85
20170821020739 69 300 4.0 7.0 0.00 0.00 0.00 85
20170821020244 70 42 3.0 8.0 0.00 0.00 0.00 83
20170821015918 70 267 2.0 8.0 0.00 0.00 0.00 83
20170821015835 70 267 2.0 8.0 0.00 0.00 0.00 83
20170821015611 70 284 3.0 8.0 0.00 0.00 0.00 83
20170821015531 70 284 3.0 8.0 0.00 0.00 0.00 83
20170821015402 70 323 3.0 9.0 0.00 0.00 0.00 83
20170821015322 70 323 3.0 9.0 0.00 0.00 0.00 83
20170821015228 70 323 3.0 9.0 0.00 0.00 0.00 83
20170821015135 70 286 7.0 5.0 0.00 0.00 0.00 83
20170821015009 70 286 7.0 5.0 0.00 0.00 0.00 83
20170821014925 70 286 7.0 5.0 0.00 0.00 0.00 83
20170821014412 69 240 0.0 7.0 0.00 0.00 0.00 82
20170821013949 70 226 1.0 7.0 0.00 0.00 0.00 82
20170821013819 70 226 1.0 7.0 0.00 0.00 0.00 82
20170821013717 70 226 1.0 7.0 0.00 0.00 0.00 82
20170821013457 70 129 2.0 7.0 0.00 0.00 0.00 81
20170821013150 70 125 0.0 7.0 0.00 0.00 0.00 81
20170821013112 70 125 0.0 7.0 0.00 0.00 0.00 81
20170821012944 72 180 1.0 7.0 0.00 0.00 0.00 79
20170821012848 72 180 1.0 7.0 0.00 0.00 0.00 79
20170821012810 72 180 1.0 7.0 0.00 0.00 0.00 79
20170821012555 72 270 0.0 7.0 0.00 0.00 0.00 79
20170821012259 72 264 3.0 8.0 0.00 0.00 0.00 78
20170821012205 72 264 3.0 8.0 0.00 0.00 0.00 78
20170821012034 73 282 4.0 8.0 0.00 0.00 0.00 77
20170821011950 73 282 4.0 8.0 0.00 0.00 0.00 77
20170821011902 73 282 4.0 8.0 0.00 0.00 0.00 77
20170821011756 72 340 5.0 8.0 0.00 0.00 0.00 77
20170821011651 72 340 5.0 8.0 0.00 0.00 0.00 77
20170821011600 72 340 5.0 8.0 0.00 0.00 0.00 77
20170821011344 72 312 4.0 6.0 0.00 0.00 0.00 77
20170821011258 72 312 4.0 6.0 0.00 0.00 0.00 77
20170821011140 73 313 1.0 6.0 0.00 0.00 0.00 77
20170821011104 73 313 1.0 6.0 0.00 0.00 0.00 77
20170821010954 73 313 1.0 6.0 0.00 0.00 0.00 77
20170821010807 73 205 5.0 12.0 0.00 0.00 0.00 77
20170821010425 72 135 1.0 8.0 0.00 0.00 0.00 77
20170821010350 72 135 1.0 8.0 0.00 0.00 0.00 77
20170821010239 73 262 4.0 8.0 0.00 0.00 0.00 77
20170821010126 73 262 4.0 8.0 0.00 0.00 0.00 77
20170821010048 73 262 4.0 8.0 0.00 0.00 0.00 77
20170821005934 73 270 2.0 9.0 0.00 0.00 0.00 76
20170821005841 73 270 2.0 9.0 0.00 0.00 0.00 76
20170821005745 73 270 2.0 9.0 0.00 0.00 0.00 76
20170821005619 73 129 7.0 9.0 0.00 0.00 0.00 75
20170821005514 73 129 7.0 9.0 0.00 0.00 0.00 75
20170821005442 73 129 7.0 9.0 0.00 0.00 0.00 75
20170821005331 73 281 4.0 6.0 0.00 0.00 0.00 75
20170821005222 73 281 4.0 6.0 0.00 0.00 0.00 75
20170821005141 73 281 4.0 6.0 0.00 0.00 0.00 75
20170821005029 74 144 2.0 10.0 0.00 0.00 0.00 74
20170821004917 74 144 2.0 10.0 0.00 0.00 0.00 74
20170821004838 74 144 2.0 10.0 0.00 0.00 0.00 74
20170821004734 75 337 3.0 10.0 0.00 0.00 0.00 74
20170821004631 75 337 3.0 10.0 0.00 0.00 0.00 74
20170821004535 75 337 3.0 10.0 0.00 0.00 0.00 74
20170821004405 74 310 5.0 11.0 0.00 0.00 0.00 73
20170821004303 74 310 5.0 11.0 0.00 0.00 0.00 73
20170821004232 74 310 5.0 11.0 0.00 0.00 0.00 73
20170821004110 75 289 8.0 14.0 0.00 0.00 0.00 72
20170821003931 75 289 8.0 14.0 0.00 0.00 0.00 72
20170821003628 75 149 2.0 14.0 0.00 0.00 0.00 71
20170821003403 75 292 1.0 11.0 0.00 0.00 0.00 71
20170821003230 76 341 4.0 11.0 0.00 0.00 0.00 69
20170821003104 76 341 4.0 11.0 0.00 0.00 0.00 69
20170821003023 76 341 4.0 11.0 0.00 0.00 0.00 69
20170821002805 77 279 5.0 12.0 0.00 0.00 0.00 69
20170821002544 76 194 5.0 10.0 0.00 0.00 0.00 68
20170821002455 76 194 5.0 10.0 0.00 0.00 0.00 68
20170821002418 76 194 5.0 10.0 0.00 0.00 0.00 68
20170821002156 77 278 5.0 10.0 0.00 0.00 0.00 68
20170821001613 77 209 0.0 11.0 0.00 0.00 0.00 67
20170821001318 77 184 0.0 15.0 0.00 0.00 0.00 67
20170821001010 78 132 0.0 12.0 0.00 0.00 0.00 67
20170821000629 78 144 3.0 12.0 0.00 0.00 0.00 66
20170821000459 78 291 7.0 11.0 0.00 0.00 0.00 66
20170821000334 78 291 7.0 11.0 0.00 0.00 0.00 66
20170821000259 78 291 7.0 11.0 0.00 0.00 0.00 66
20170821000203 78 292 6.0 11.0 0.00 0.00 0.00 66
20170821000032 78 292 6.0 11.0 0.00 0.00 0.00 66
20170820235957 78 292 6.0 11.0 0.00 0.00 0.00 66
20170820235823 78 313 6.0 10.0 0.00 0.00 0.00 66
20170820235656 78 313 6.0 10.0 0.00 0.00 0.00 66
20170820235353 77 334 5.0 11.0 0.00 0.00 0.00 66
20170820235222 78 29 1.0 11.0 0.00 0.00 0.00 65
20170820235133 78 29 1.0 11.0 0.00 0.00 0.00 65
20170820235051 78 29 1.0 11.0 0.00 0.00 0.00 65
20170820234946 78 22 2.0 12.0 0.00 0.00 0.00 64
20170820234821 78 22 2.0 12.0 0.00 0.00 0.00 64
20170820234748 78 22 2.0 12.0 0.00 0.00 0.00 64
20170820234705 78 278 5.0 12.0 0.00 0.00 0.00 64
20170820234521 78 278 5.0 12.0 0.00 0.00 0.00 64
20170820234446 78 278 5.0 12.0 0.00 0.00 0.00 64
20170820234333 78 241 3.0 13.0 0.00 0.00 0.00 65
20170820234215 78 241 3.0 13.0 0.00 0.00 0.00 65
20170820234143 78 241 3.0 13.0 0.00 0.00 0.00 65
20170820234017 78 282 10.0 9.0 0.00 0.00 0.00 65
20170820233912 78 282 10.0 9.0 0.00 0.00 0.00 65
20170820233841 78 282 10.0 9.0 0.00 0.00 0.00 65
20170820233623 79 286 6.0 9.0 0.00 0.00 0.00 63
20170820233206 79 331 0.0 14.0 0.00 0.00 0.00 63
20170820233009 79 331 0.0 14.0 0.00 0.00 0.00 63
20170820232935 79 331 0.0 14.0 0.00 0.00 0.00 63
20170820232705 79 239 5.0 14.0 0.00 0.00 0.00 62
20170820232330 80 272 4.0 9.0 0.00 0.00 0.00 62
20170820232110 79 286 4.0 9.0 0.00 0.00 0.00 63
20170820232029 79 286 4.0 9.0 0.00 0.00 0.00 63
20170820231757 79 305 1.0 13.0 0.00 0.00 0.00 63
20170820231645 79 171 4.0 13.0 0.00 0.00 0.00 63
20170820231458 79 171 4.0 13.0 0.00 0.00 0.00 63
20170820231425 79 171 4.0 13.0 0.00 0.00 0.00 63
20170820230857 79 358 6.0 10.0 0.00 0.00 0.00 62
20170820230604 79 180 5.0 10.0 0.00 0.00 0.00 61
20170820225943 80 300 2.0 13.0 0.00 0.00 0.00 62
20170820225650 80 262 8.0 13.0 0.00 0.00 0.00 61
20170820225611 80 262 8.0 13.0 0.00 0.00 0.00 61
20170820225441 79 336 3.0 9.0 0.00 0.00 0.00 62
20170820225349 79 336 3.0 9.0 0.00 0.00 0.00 62
20170820225308 79 336 3.0 9.0 0.00 0.00 0.00 62
20170820225125 80 336 1.0 9.0 0.00 0.00 0.00 61
20170820225041 80 336 1.0 9.0 0.00 0.00 0.00 61
20170820225005 80 336 1.0 9.0 0.00 0.00 0.00 61
20170820224741 80 260 5.0 12.0 0.00 0.00 0.00 61
20170820224538 80 312 0.0 9.0 0.00 0.00 0.00 61
20170820224433 80 312 0.0 9.0 0.00 0.00 0.00 61
20170820224401 80 312 0.0 9.0 0.00 0.00 0.00 61
20170820224222 80 310 4.0 9.0 0.00 0.00 0.00 62
20170820224131 80 310 4.0 9.0 0.00 0.00 0.00 62
20170820224058 80 310 4.0 9.0 0.00 0.00 0.00 62
20170820223946 80 307 3.0 13.0 0.00 0.00 0.00 63
20170820223757 80 307 3.0 13.0 0.00 0.00 0.00 63
20170820223620 79 274 5.0 13.0 0.00 0.00 0.00 64
20170820223526 79 274 5.0 13.0 0.00 0.00 0.00 64
20170820223455 79 274 5.0 13.0 0.00 0.00 0.00 64
20170820223315 80 157 3.0 11.0 0.00 0.00 0.00 63
20170820223223 80 157 3.0 11.0 0.00 0.00 0.00 63
20170820223151 80 157 3.0 11.0 0.00 0.00 0.00 63
20170820223052 79 126 4.0 13.0 0.00 0.00 0.00 63
20170820222930 79 126 4.0 13.0 0.00 0.00 0.00 63
20170820222849 79 126 4.0 13.0 0.00 0.00 0.00 63
20170820222617 80 343 5.0 13.0 0.00 0.00 0.00 61
20170820222339 80 239 4.0 10.0 0.00 0.00 0.00 61
20170820222245 80 239 4.0 10.0 0.00 0.00 0.00 61
20170820222028 80 315 2.0 10.0 0.00 0.00 0.00 61
20170820221728 80 229 0.0 13.0 0.00 0.00 0.00 61
20170820221640 80 229 0.0 13.0 0.00 0.00 0.00 61
20170820221036 80 340 2.0 8.0 0.00 0.00 0.00 61
20170820220813 80 111 3.0 8.0 0.00 0.00 0.00 61
20170820220734 80 111 3.0 8.0 0.00 0.00 0.00 61
20170820220432 80 215 5.0 10.0 0.00 0.00 0.00 61
20170820220205 80 302 3.0 10.0 0.00 0.00 0.00 61
20170820220128 80 302 3.0 10.0 0.00 0.00 0.00 61
20170820215859 80 154 4.0 12.0 0.00 0.00 0.00 60
20170820215826 80 154 4.0 12.0 0.00 0.00 0.00 60
20170820215715 81 202 4.0 12.0 0.00 0.00 0.00 60
20170820215600 81 202 4.0 12.0 0.00 0.00 0.00 60
20170820215524 81 202 4.0 12.0 0.00 0.00 0.00 60
20170820214919 81 334 6.0 9.0 0.00 0.00 0.00 59
20170820214658 81 203 4.0 9.0 0.00 0.00 0.00 59
20170820214347 81 341 6.0 8.0 0.00 0.00 0.00 60
20170820214315 81 341 6.0 8.0 0.00 0.00 0.00 60
20170820214046 81 284 7.0 8.0 0.00 0.00 0.00 61
20170820214013 81 284 7.0 8.0 0.00 0.00 0.00 61
20170820213800 80 113 0.0 11.0 0.00 0.00 0.00 61
20170820213709 80 113 0.0 11.0 0.00 0.00 0.00 61
20170820213407 81 258 5.0 6.0 0.00 0.00 0.00 60
20170820213144 80 286 8.0 6.0 0.00 0.00 0.00 61
20170820213105 80 286 8.0 6.0 0.00 0.00 0.00 61
20170820212822 81 350 0.0 10.0 0.00 0.00 0.00 61
20170820212555 81 316 6.0 10.0 0.00 0.00 0.00 60
20170820212459 81 316 6.0 10.0 0.00 0.00 0.00 60
20170820212323 81 251 0.0 11.0 0.00 0.00 0.00 60
20170820212240 81 251 0.0 11.0 0.00 0.00 0.00 60
20170820212156 81 251 0.0 11.0 0.00 0.00 0.00 60
20170820211855 82 182 2.0 14.0 0.00 0.00 0.00 59
20170820211249 81 296 10.0 12.0 0.00 0.00 0.00 60
20170820211024 81 324 8.0 12.0 0.00 0.00 0.00
20170820210947 81 324 8.0 12.0 0.00 0.00 0.00
20170820210716 81 253 9.0 14.0 0.00 0.00 0.00 60
20170820210645 81 253 9.0 14.0 0.00 0.00 0.00 60
20170820210425 81 90 1.0 12.0 0.00 0.00 0.00 59
20170820210300 61 312 2.0 4.0 0.00 0.00 0.00 99
20170820205913 81 284 11.0 11.0 0.00 0.00 0.00 60
20170820205737 81 284 11.0 11.0 0.00 0.00 0.00 60
20170820205605 81 284 7.0 11.0 0.00 0.00 0.00 60
20170820205435 81 284 7.0 11.0 0.00 0.00 0.00 60
20170820205325 81 333 3.0 13.0 0.00 0.00 0.00 59
20170820205133 81 333 3.0 13.0 0.00 0.00 0.00 59
20170820204832 82 279 9.0 13.0 0.00 0.00 0.00 58
20170820203800 82 289 1.0 21.0 0.00 0.00 0.00 56
20170820203622 82 289 1.0 21.0 0.00 0.00 0.00 56
20170820202900 81 298 4.0 11.0 0.00 0.00 0.00 58
20170820202713 81 298 4.0 11.0 0.00 0.00 0.00 58
20170820202411 81 260 2.0 15.0 0.00 0.00 0.00 59
20170820202224 82 126 7.0 15.0 0.00 0.00 0.00 60
20170820202108 82 126 7.0 15.0 0.00 0.00 0.00 60
20170820201804 81 296 9.0 15.0 0.00 0.00 0.00 59
20170820201336 81 258 9.0 14.0 0.00 0.00 0.00 60
20170820201158 81 258 9.0 14.0 0.00 0.00 0.00 60
20170820201052 81 230 6.0 13.0 0.00 0.00 0.00 60
20170820200856 81 230 6.0 13.0 0.00 0.00 0.00 60
20170820200555 81 285 9.0 13.0 0.00 0.00 0.00 60
20170820200252 81 330 8.0 14.0 0.00 0.00 0.00 60
20170820195800 80 274 7.0 13.0 0.00 0.00 0.00 62
20170820195648 80 274 7.0 13.0 0.00 0.00 0.00 62
20170820195347 80 291 1.0 13.0 0.00 0.00 0.00 63
20170820194946 81 326 3.0 11.0 0.00 0.00 0.00 63
20170820194743 81 326 3.0 11.0 0.00 0.00 0.00 63
20170820194641 80 260 7.0 11.0 0.00 0.00 0.00 62
20170820194440 80 260 7.0 11.0 0.00 0.00 0.00 62
20170820193837 79 11 4.0 13.0 0.00 0.00 0.00 64
20170820193533 79 289 13.0 13.0 0.00 0.00 0.00 64
20170820191609 78 285 6.0 8.0 0.00 0.00 0.00 66
20170820191417 78 285 6.0 8.0 0.00 0.00 0.00 66
20170820191240 78 243 4.0 8.0 0.00 0.00 0.00 66
20170820191114 78 243 4.0 8.0 0.00 0.00 0.00 66
20170820190932 78 272 2.0 10.0 0.00 0.00 0.00 67
20170820190811 78 272 2.0 10.0 0.00 0.00 0.00 67
20170820190208 78 160 4.0 9.0 0.00 0.00 0.00 66
20170820185300 77 285 5.0 13.0 0.00 0.00 0.00 67
20170820184354 77 261 5.0 11.0 0.00 0.00 0.00 69
20170820184212 76 305 5.0 11.0 0.00 0.00 0.00 69
20170820184050 76 305 5.0 11.0 0.00 0.00 0.00 69
20170820183936 76 313 5.0 6.0 0.00 0.00 0.00 70
20170820183748 76 313 5.0 6.0 0.00 0.00 0.00 70
20170820183345 75 258 5.0 10.0 0.00 0.00 0.00 71
20170820183144 75 258 5.0 10.0 0.00 0.00 0.00 71
20170820182841 77 106 0.0 6.0 0.00 0.00 0.00 71
20170820182237 76 205 3.0 10.0 0.00 0.00 0.00 71
20170820182106 76 171 1.0 10.0 0.00 0.00 0.00 72
20170820181934 76 171 1.0 10.0 0.00 0.00 0.00 72
20170820181814 75 303 4.0 10.0 0.00 0.00 0.00 72
20170820181631 75 303 4.0 10.0 0.00 0.00 0.00 72
20170820180908 75 246 3.0 9.0 0.00 0.00 0.00 73
20170820180725 75 246 3.0 9.0 0.00 0.00 0.00 73
20170820180421 75 11 2.0 10.0 0.00 0.00 0.00 72
20170820180249 75 275 3.0 10.0 0.00 0.00 0.00 74
20170820180119 75 275 3.0 10.0 0.00 0.00 0.00 74
20170820175817 74 285 5.0 8.0 0.00 0.00 0.00 75
20170820175515 74 323 6.0 8.0 0.00 0.00 0.00 75
20170820175210 74 271 3.0 5.0 0.00 0.00 0.00 75
20170820174909 74 293 3.0 6.0 0.00 0.00 0.00 75
20170820174608 74 216 2.0 6.0 0.00 0.00 0.00 76
20170820174328 74 237 1.0 5.0 0.00 0.00 0.00 76
20170820173909 73 222 2.0 6.0 0.00 0.00 0.00 79
20170820173702 73 222 2.0 6.0 0.00 0.00 0.00 79
20170820172024 71 160 5.0 6.0 0.00 0.00 0.00 82
20170820171847 71 160 5.0 6.0 0.00 0.00 0.00 82
20170820171733 71 262 3.0 6.0 0.00 0.00 0.00 81
20170820171544 71 262 3.0 6.0 0.00 0.00 0.00 81
20170820171242 72 247 3.0 8.0 0.00 0.00 0.00 82
20170820170807 71 278 5.0 5.0 0.00 0.00 0.00 83
20170820170636 71 278 5.0 5.0 0.00 0.00 0.00 83
20170820170506 70 56 0.0 7.0 0.00 0.00 0.00 83
20170820170334 70 56 0.0 7.0 0.00 0.00 0.00 83
20170820170207 71 255 3.0 7.0 0.00 0.00 0.00 83
20170820170032 71 255 3.0 7.0 0.00 0.00 0.00 83
20170820165731 70 254 7.0 7.0 0.00 0.00 0.00 82
20170820165306 69 306 2.0 8.0 0.00 0.00 0.00 85
20170820165125 69 306 2.0 8.0 0.00 0.00 0.00 85
20170820164823 69 209 0.0 6.0 0.00 0.00 0.00 86
20170820164519 69 358 2.0 6.0 0.00 0.00 0.00 88
20170820163756 67 253 3.0 5.0 0.00 0.00 0.00 91
20170820163611 67 253 3.0 5.0 0.00 0.00 0.00 91
20170820162400 66 306 4.0 4.0 0.00 0.00 0.00 92
20170820161600 65 330 3.0 4.0 0.00 0.00 0.00 95
20170820161451 65 330 3.0 4.0 0.00 0.00 0.00 95
20170820161308 65 312 2.0 3.0 0.00 0.00 0.00 96
20170820161148 65 312 2.0 3.0 0.00 0.00 0.00 96
20170820160845 65 300 0.0 5.0 0.00 0.00 0.00 96
20170820160542 64 300 2.0 5.0 0.00 0.00 0.00 96
20170820155331 64 303 2.0 4.0 0.00 0.00 0.00 97
20170820154727 63 292 3.0 2.0 0.00 0.00 0.00 98
20170820154426 63 302 0.0 4.0 0.00 0.00 0.00 98
20170820154314 63 306 1.0 4.0 0.00 0.00 0.00 98
20170820154120 63 306 1.0 4.0 0.00 0.00 0.00 98
20170820154118 63 306 1.0 4.0 0.00 0.00 0.00 98
20170820154027 62 22 1.0 1.0 0.00 0.00 0.00 98
20170820153816 62 22 1.0 1.0 0.00 0.00 0.00 98
20170820153730 63 36 1.0 1.0 0.00 0.00 0.00 98
20170820153514 63 36 1.0 1.0 0.00 0.00 0.00 98
20170820153331 62 310 0.0 2.0 0.00 0.00 0.00 98
20170820153210 62 310 0.0 2.0 0.00 0.00 0.00 98
20170820153123 62 310 0.0 2.0 0.00 0.00 0.00 98
20170820152909 62 310 0.0 2.0 0.00 0.00 0.00 98
20170820152605 62 29 2.0 2.0 0.00 0.00 0.00 98
20170820152153 62 135 0.0 5.0 0.00 0.00 0.00 98
20170820151959 62 135 0.0 5.0 0.00 0.00 0.00 98
20170820151657 62 112 2.0 5.0 0.00 0.00 0.00 98
20170820151352 62 75 4.0 2.0 0.00 0.00 0.00 99
20170820151237 62 191 0.0 2.0 0.00 0.00 0.00 99
20170820151051 62 191 0.0 2.0 0.00 0.00 0.00 99
20170820150923 62 191 1.0 3.0 0.00 0.00 0.00 99
20170820150748 62 191 1.0 3.0 0.00 0.00 0.00 99
20170820150142 62 15 0.0 0.0 0.00 0.00 0.00 99
20170820145838 61 15 0.0 3.0 0.00 0.00 0.00 99
20170820145535 62 15 0.0 3.0 0.00 0.00 0.00 99
20170820145234 62 105 0.0 3.0 0.00 0.00 0.00 99
20170820144931 62 74 0.0 5.0 0.00 0.00 0.00 99
20170820144300 61 285 0.0 2.0 0.00 0.00 0.00 99
20170820144022 61 285 0.0 2.0 0.00 0.00 0.00 99
20170820143914 62 285 0.0 4.0 0.00 0.00 0.00 99
20170820143719 62 285 0.0 4.0 0.00 0.00 0.00 99
20170820143632 61 300 1.0 4.0 0.00 0.00 0.00 99
20170820143415 61 300 1.0 4.0 0.00 0.00 0.00 99
20170820142205 61 310 0.0 4.0 0.00 0.00 0.00 99
20170820141904 61 310 0.0 4.0 0.00 0.00 0.00 99
20170820141600 61 312 2.0 4.0 0.00 0.00 0.00 99
20170820141441 61 307 0.0 4.0 0.00 0.00 0.00 99
20170820141256 61 307 0.0 4.0 0.00 0.00 0.00 99
20170820141129 61 352 0.0 4.0 0.00 0.00 0.00 99
20170820140954 61 352 0.0 4.0 0.00 0.00 0.00 99
20170820140841 61 323 3.0 1.0 0.00 0.00 0.00 99
20170820140651 61 323 3.0 1.0 0.00 0.00 0.00 99
20170820135920 61 43 0.0 4.0 0.00 0.00 0.00 99
20170820135742 61 43 0.0 4.0 0.00 0.00 0.00 99
20170820135442 61 12 0.0 4.0 0.00 0.00 0.00 99
20170820135137 61 39 1.0 4.0 0.00 0.00 0.00 99
20170820135030 61 23 0.0 3.0 0.00 0.00 0.00 99
20170820134834 61 23 0.0 3.0 0.00 0.00 0.00 99
20170820134531 61 71 2.0 3.0 0.00 0.00 0.00 99
20170820134436 61 97 3.0 0.0 0.00 0.00 0.00 99
20170820134228 61 97 3.0 0.0 0.00 0.00 0.00 99
20170820133622 61 54 0.0 0.0 0.00 0.00 0.00 99
20170820133512 61 54 0.0 0.0 0.00 0.00 0.00 99
20170820133320 61 54 0.0 0.0 0.00 0.00 0.00 99
20170820133226 61 54 0.0 0.0 0.00 0.00 0.00 99
20170820133016 61 54 0.0 0.0 0.00 0.00 0.00 99
20170820132714 61 54 0.0 4.0 0.00 0.00 0.00 99
20170820131930 61 59 2.0 4.0 0.00 0.00 0.00 99
20170820131805 61 59 2.0 4.0 0.00 0.00 0.00 99
20170820131309 60 39 1.0 4.0 0.00 0.00 0.00 99
20170820131202 60 39 1.0 4.0 0.00 0.00 0.00 99
20170820131159 60 39 1.0 4.0 0.00 0.00 0.00 99
20170820130858 61 77 3.0 4.0 0.00 0.00 0.00 99
20170820130812 61 85 3.0 4.0 0.00 0.00 0.00 99
20170820130547 61 85 3.0 4.0 0.00 0.00 0.00 99
20170820130146 62 85 2.0 4.0 0.00 0.00 0.00 99
20170820125744 61 73 3.0 3.0 0.00 0.00 0.00 99
20170820125343 61 60 2.0 0.0 0.00 0.00 0.00 99
20170820124940 61 80 0.0 0.0 0.00 0.00 0.00 99
20170820124541 61 80 0.0 5.0 0.00 0.00 0.00 99
20170820124137 61 102 4.0 4.0 0.00 0.00 0.00 99
20170820124003 61 92 2.0 2.0 0.00 0.00 0.00 99
20170820123736 61 92 2.0 2.0 0.00 0.00 0.00 99
20170820123734 61 92 2.0 2.0 0.00 0.00 0.00 99
20170820123248 61 45 0.0 2.0 0.00 0.00 0.00 99
20170820122932 61 45 0.0 2.0 0.00 0.00 0.00 99
20170820122532 62 77 0.0 2.0 0.00 0.00 0.00 99
20170820122132 61 67 2.0 3.0 0.00 0.00 0.00 99
20170820121726 61 81 3.0 1.0 0.00 0.00 0.00 99
20170820121324 61 67 0.0 3.0 0.00 0.00 0.00 99
20170820121144 61 37 0.0 3.0 0.00 0.00 0.00 99
20170820120922 61 37 0.0 3.0 0.00 0.00 0.00 99
20170820120521 61 64 2.0 3.0 0.00 0.00 0.00 99
20170820120258 61 54 1.0 3.0 0.00 0.00 0.00 99
20170820120119 61 54 1.0 3.0 0.00 0.00 0.00 99
20170820115846 61 50 1.0 1.0 0.00 0.00 0.00 99
20170820115718 61 50 1.0 1.0 0.00 0.00 0.00 99
20170820115316 60 157 0.0 2.0 0.00 0.00 0.00 99
20170820115119 61 157 0.0 2.0 0.00 0.00 0.00 99
20170820114914 61 157 0.0 2.0 0.00 0.00 0.00 99
20170820114511 60 170 2.0 2.0 0.00 0.00 0.00 100
20170820114110 60 87 1.0 3.0 0.00 0.00 0.00 100
20170820113710 60 82 0.0 5.0 0.00 0.00 0.00 100
20170820113448 60 68 4.0 5.0 0.00 0.00 0.00 100
20170820113306 60 68 4.0 5.0 0.00 0.00 0.00 100
20170820112907 60 80 4.0 4.0 0.00 0.00 0.00 100
20170820112643 60 67 4.0 4.0 0.00 0.00 0.00 100
20170820112503 60 67 4.0 4.0 0.00 0.00 0.00 100
20170820111702 61 84 1.0 0.0 0.00 0.00 0.00 99
20170820111433 60 40 0.0 2.0 0.00 0.00 0.00 99
20170820111257 60 40 0.0 2.0 0.00 0.00 0.00 99
20170820111109 60 147 0.0 3.0 0.00 0.00 0.00 99
20170820110857 60 147 0.0 3.0 0.00 0.00 0.00 99
20170820110453 60 185 1.0 3.0 0.00 0.00 0.00 99
20170820110239 61 181 1.0 2.0 0.00 0.00 0.00 99
20170820110053 61 181 1.0 2.0 0.00 0.00 0.00 99
20170820105848 60 87 0.0 2.0 0.00 0.00 0.00 99
20170820105649 60 87 0.0 2.0 0.00 0.00 0.00 99
20170820104705 60 88 2.0 4.0 0.00 0.00 0.00 99
20170820104446 60 88 2.0 4.0 0.00 0.00 0.00 99
20170820104444 60 88 2.0 4.0 0.00 0.00 0.00 99
20170820104228 60 66 2.0 0.0 0.00 0.00 0.00 99
20170820104044 60 66 2.0 0.0 0.00 0.00 0.00 99
20170820103846 60 118 0.0 0.0 0.00 0.00 0.00 99
20170820103642 60 118 0.0 0.0 0.00 0.00 0.00 99
20170820103104 60 118 0.0 0.0 0.00 0.00 0.00 99
20170820102839 60 118 0.0 0.0 0.00 0.00 0.00 99
20170820102439 59 118 0.0 0.0 0.00 0.00 0.00 99
20170820102435 59 118 0.0 0.0 0.00 0.00 0.00 99
20170820101914 59 118 0.0 0.0 0.00 0.00 0.00 99
20170820101633 59 118 0.0 0.0 0.00 0.00 0.00 99
20170820101231 59 118 0.0 0.0 0.00 0.00 0.00 99
20170820100831 59 118 0.0 0.0 0.00 0.00 0.00 99
20170820095854 59 118 0.0 0.0 0.00 0.00 0.00 99
20170820095625 59 118 0.0 0.0 0.00 0.00 0.00 99
20170820095222 59 118 0.0 0.0 0.00 0.00 0.00 99
20170820095047 59 118 0.0 0.0 0.00 0.00 0.00 99
20170820094821 59 118 0.0 0.0 0.00 0.00 0.00 99
20170820094417 59 118 0.0 0.0 0.00 0.00 0.00 99
20170820094017 58 118 0.0 0.0 0.00 0.00 0.00 99
20170820093615 58 118 0.0 0.0 0.00 0.00 0.00 99
20170820092814 58 118 0.0 0.0 0.00 0.00 0.00 99
20170820092410 58 118 0.0 0.0 0.00 0.00 0.00 99
20170820091803 59 118 0.0 0.0 0.00 0.00 0.00 99
20170820091608 59 118 0.0 0.0 0.00 0.00 0.00 99
20170820091325 58 118 0.0 0.0 0.00 0.00 0.00 99
20170820091204 58 118 0.0 0.0 0.00 0.00 0.00 99
20170820090803 59 118 0.0 0.0 0.00 0.00 0.00 99
20170820090400 58 118 0.0 0.0 0.00 0.00 0.00 98
20170820085958 59 118 0.0 0.0 0.00 0.00 0.00 98
20170820085557 59 118 0.0 0.0 0.00 0.00 0.00 98
20170820085155 59 118 0.0 0.0 0.00 0.00 0.00 98
20170820084931 59 118 0.0 0.0 0.00 0.00 0.00 98
20170820084753 59 118 0.0 0.0 0.00 0.00 0.00 98